Change the Weather History Date:

Thursday, June 13, 2013

  Actual Average (KCAK) Record (KCAK)
Temperature  
Mean Temperature 66 °F 67 °F  
Max Temperature 72 °F 78 °F 91 °F (1956)
Min Temperature 60 °F 57 °F 44 °F (1978)
Degree Days  
Heating Degree Days 0 2  
Month to date heating degree days 35  
Since 1 June heating degree days 35  
Since 1 July heating degree days 6136  
Cooling Degree Days 2 4  
Month to date cooling degree days 41  
Year to date cooling degree days 83  
Since 1 June cooling degree days 41  
Growing Degree Days 16 (Base 50)    
Moisture  
Dew Point 59 °F    
Average Humidity 82    
Maximum Humidity 94    
Minimum Humidity 51    
Precipitation  
Precipitation 0.47 in 0.13 in 1.32 in (1960)
Month to date precipitation 1.66  
Year to date precipitation 17.39  
Snow  
Snow 0.00 in 0.00 in - ()
Month to date snowfall 0.0  
Since 1 June snowfall 0.0  
Since 1 July snowfall 47.5  
Snow Depth -    
Sea Level Pressure  
Sea Level Pressure 29.67 in    
Wind  
Wind Speed 12 mph (NW)    
Max Wind Speed 23 mph    
Max Gust Speed 46 mph    
Visibility 9 miles    
Events Rain    
T = Trace of Precipitation, MM = Missing Value Source: NWS Daily Summary

Daily Weather History Graph

Daily Weather History Graph

Search for Another Location

Airport or City:

Trip Planner

Search our weather history database for the weather conditions in past years. The results will help you decide how hot, cold, wet, or windy it might be!

Date:

Astronomy

Jun. 13, 2013 Rise Set
Actual Time 5:52 AM EDT 8:59 PM EDT
Civil Twilight 5:19 AM EDT 9:32 PM EDT
Nautical Twilight 4:36 AM EDT 10:15 PM EDT
Astronomical Twilight 3:45 AM EDT 11:06 PM EDT
Moon 10:30 AM EDT (6/13) No Moon Set
Length of Visible Light 16h 13m
Length of Day
15h 06m
Waxing Crescent, 21% of the Moon is Illuminated
Jun 13
Waxing Crescent
Jun 16
First Quarter
Jun 23
Full
Jun 30
Last Quarter
Jul 8
New

Hourly Weather History & Observations

Time (EDT) Temp. Dew Point Humidity Pressure Visibility Wind Dir Wind Speed Gust Speed Precip Events Conditions
12:54 AM 71.1 °F 63.0 °F 75% 29.65 in 10.0 mi South 11.5 mph - N/A   Partly Cloudy
1:54 AM 70.0 °F 64.0 °F 81% 29.60 in 10.0 mi South 5.8 mph - 0.00 in   Partly Cloudy
2:39 AM 66.2 °F 62.6 °F 88% 29.67 in 2.5 mi West 23.0 mph 46.0 mph 0.15 in Rain Heavy Rain
2:44 AM 66.2 °F 62.6 °F 88% 29.69 in 1.5 mi WSW 16.1 mph 46.0 mph 0.27 in Rain Heavy Rain
2:48 AM 66.2 °F 62.6 °F 88% 29.66 in 2.0 mi WSW 9.2 mph 28.8 mph 0.32 in Rain Heavy Rain
2:54 AM 66.0 °F 63.0 °F 90% 29.62 in 4.0 mi West 9.2 mph 23.0 mph 0.35 in Rain Rain
3:54 AM 66.0 °F 64.0 °F 93% 29.56 in 10.0 mi SSW 10.4 mph - 0.08 in Rain Light Rain
4:54 AM 66.0 °F 63.0 °F 90% 29.53 in 10.0 mi SW 11.5 mph - 0.01 in   Partly Cloudy
5:54 AM 64.9 °F 62.1 °F 90% 29.52 in 10.0 mi WSW 6.9 mph - N/A   Clear
6:34 AM 64.4 °F 62.6 °F 94% 29.56 in 10.0 mi SW 10.4 mph - N/A   Mostly Cloudy
6:50 AM 64.4 °F 62.6 °F 94% 29.56 in 10.0 mi SW 10.4 mph - N/A   Overcast
6:54 AM 64.9 °F 62.1 °F 90% 29.55 in 10.0 mi WSW 12.7 mph - N/A   Overcast
7:20 AM 64.4 °F 62.6 °F 94% 29.59 in 10.0 mi WSW 10.4 mph - N/A   Overcast
7:28 AM 64.4 °F 62.6 °F 94% 29.59 in 10.0 mi West 9.2 mph - N/A   Overcast
7:54 AM 64.9 °F 62.1 °F 90% 29.58 in 10.0 mi West 9.2 mph - N/A   Overcast
8:45 AM 64.4 °F 62.6 °F 94% 29.62 in 8.0 mi WNW 9.2 mph - 0.01 in Rain Light Rain
8:54 AM 64.9 °F 63.0 °F 93% 29.60 in 10.0 mi NW 9.2 mph - 0.01 in   Overcast
9:45 AM 62.6 °F 60.8 °F 94% 29.64 in 6.0 mi NNW 11.5 mph 19.6 mph 0.01 in Rain Light Rain
9:54 AM 63.0 °F 60.1 °F 90% 29.63 in 4.0 mi NNW 13.8 mph - 0.02 in Rain Light Rain
10:14 AM 62.6 °F 60.8 °F 94% 29.64 in 10.0 mi NNW 10.4 mph - 0.00 in   Overcast
10:54 AM 62.1 °F 60.1 °F 93% 29.64 in 10.0 mi NNW 9.2 mph - 0.00 in   Overcast
11:54 AM 62.1 °F 59.0 °F 90% 29.66 in 10.0 mi NNW 13.8 mph 21.9 mph N/A   Overcast
12:26 PM 62.6 °F 59.0 °F 88% 29.69 in 10.0 mi NNW 10.4 mph 16.1 mph N/A   Overcast
12:54 PM 64.0 °F 59.0 °F 84% 29.68 in 10.0 mi NNW 11.5 mph - N/A   Overcast
1:20 PM 64.4 °F 59.0 °F 83% 29.70 in 10.0 mi North 13.8 mph 19.6 mph N/A   Overcast
1:54 PM 64.9 °F 57.9 °F 78% 29.70 in 10.0 mi North 15.0 mph - N/A   Overcast
2:25 PM 66.2 °F 57.2 °F 73% 29.72 in 10.0 mi NNW 12.7 mph 20.7 mph N/A   Overcast
2:54 PM 69.1 °F 59.0 °F 70% 29.71 in 10.0 mi NNW 15.0 mph 23.0 mph N/A   Mostly Cloudy
3:11 PM 68.0 °F 57.2 °F 68% 29.74 in 10.0 mi North 16.1 mph 24.2 mph N/A   Overcast
3:29 PM 68.0 °F 59.0 °F 73% 29.74 in 10.0 mi North 11.5 mph 23.0 mph N/A   Overcast
3:54 PM 70.0 °F 57.0 °F 63% 29.73 in 10.0 mi NNW 15.0 mph 24.2 mph N/A   Overcast
4:54 PM 71.1 °F 55.0 °F 57% 29.74 in 10.0 mi NNW 17.3 mph 25.3 mph N/A   Scattered Clouds
5:54 PM 72.0 °F 54.0 °F 53% 29.74 in 10.0 mi NNW 15.0 mph 20.7 mph N/A   Partly Cloudy
6:54 PM 70.0 °F 51.1 °F 51% 29.76 in 10.0 mi NNW 20.7 mph 29.9 mph N/A   Clear
7:54 PM 68.0 °F 51.1 °F 55% 29.81 in 10.0 mi North 19.6 mph 31.1 mph N/A   Clear
8:54 PM 64.9 °F 53.1 °F 65% 29.82 in 10.0 mi NNW 11.5 mph 19.6 mph N/A   Clear
9:54 PM 63.0 °F 54.0 °F 72% 29.84 in 10.0 mi NNW 10.4 mph - N/A   Clear
10:54 PM 61.0 °F 54.0 °F 78% 29.85 in 10.0 mi North 6.9 mph - N/A   Clear
11:54 PM 60.1 °F 55.0 °F 83% 29.86 in 10.0 mi North 5.8 mph - N/A   Clear